EW3084 Weather Reports


time (UTC)temp
C
wind
direction
speed
KPH
gust
KPH
rain 1hr
cm
rain 24hr
cm
rain mn
cm
humidity
%
barometer
mb
20260503004503 9 289 0.0 1.6 0.05 0.23 0.23 100
20260503003603 9 289 0.0 1.6 0.05 0.23 0.23 100
20260503002917 9 305 0.0 1.6 0.05 0.23 0.23 100
20260503001803 9 0 0.0 0.0 0.08 0.23 0.23 100
20260503000903 9 183 0.0 1.6 0.05 0.23 0.23 100
20260503000219 9 0 0.0 0.0 0.08 0.23 0.23 100
20260502235403 9 0 0.0 0.0 0.08 0.20 0.20 100
20260502234503 9 168 0.0 3.2 0.13 0.20 0.20 100
20260502233603 9 150 0.0 3.2 0.13 0.18 0.18 100
20260502232703 9 0 0.0 0.0 0.15 0.18 0.18 100
20260502231803 9 0 0.0 0.0 0.15 0.15 0.15 97
20260502230903 9 0 0.0 0.0 0.15 0.15 0.15 93
20260502230003 9 233 0.0 1.6 0.15 0.15 0.15 92
20260502225403 10 275 0.0 3.2 0.13 0.13 0.13 90
20260502224718 10 274 0.0 1.6 0.08 0.08 0.08 87
20260502223603 10 296 0.0 3.2 0.05 0.05 0.05 85
20260502222703 11 0 0.0 0.0 0.05 0.05 0.05 81
20260502222016 11 287 1.6 9.7 0.03 0.03 0.03 77
20260502220903 11 293 4.8 16.1 0.00 0.00 0.00 70
20260502220003 12 288 8.0 17.7 0.00 0.00 0.00 66
20260502215618 12 294 6.4 17.7 0.00 0.00 0.00 64
20260502214503 12 293 3.2 14.5 0.00 0.00 0.00 61
20260502213603 12 293 1.6 9.7 0.00 0.00 0.00 60
20260502212703 12 278 3.2 9.7 0.00 0.00 0.00 60
20260502211803 13 283 4.8 16.1 0.00 0.00 0.00 58
20260502211119 13 295 6.4 17.7 0.00 0.00 0.00 58
20260502210003 13 293 3.2 11.3 0.00 0.00 0.00 52
20260502205403 13 296 1.6 8.0 0.00 0.00 0.00 52
20260502204503 13 334 0.0 3.2 0.00 0.00 0.00 47
20260502203603 13 311 0.0 3.2 0.00 0.00 0.00 46
20260502202703 13 296 1.6 6.4 0.00 0.00 0.00 48
20260502201803 13 278 0.0 1.6 0.00 0.00 0.00 51
20260502200903 13 278 0.0 1.6 0.00 0.00 0.00 49
20260502200218 14 278 0.0 1.6 0.00 0.00 0.00 47
20260502195403 14 278 0.0 1.6 0.00 0.00 0.00 46
20260502194503 15 278 0.0 1.6 0.00 0.00 0.00 45
20260502193603 15 283 1.6 8.0 0.00 0.00 0.00 44
20260502192703 15 280 3.2 11.3 0.00 0.00 0.00 43
20260502191803 15 271 4.8 9.7 0.00 0.00 0.00 42
20260502190903 16 281 4.8 16.1 0.00 0.00 0.00 43
20260502190004 16 269 6.4 16.1 0.00 0.00 0.00 42
20260502185403 16 270 8.0 17.7 0.00 0.00 0.00 42
20260502184503 16 276 9.7 19.3 0.00 0.00 0.00 41
20260502183603 16 280 8.0 22.5 0.00 0.00 0.00 41
20260502182703 17 274 8.0 22.5 0.00 0.00 0.00 40
20260502181803 17 262 9.7 20.9 0.00 0.00 0.00 39
20260502181118 17 267 11.3 22.5 0.00 0.00 0.00 39
20260502163603 19 265 11.3 20.9 0.00 0.00 0.00 32
20260502162703 19 261 12.9 25.7 0.00 0.00 0.00 32
20260502161803 20 273 14.5 38.6 0.00 0.00 0.00 33
20260502161117 20 271 12.9 38.6 0.00 0.00 0.00 31
20260502152017 21 265 14.5 32.2 0.00 0.00 0.00 31
20260502150903 20 268 16.1 40.2 0.00 0.00 0.00 32
20260502122703 20 269 19.3 45.1 0.00 0.00 0.00 35
20260502122016 20 271 22.5 48.3 0.00 0.00 0.00 37
20260502120903 20 265 17.7 41.8 0.00 0.00 0.00 38
20260502115403 20 266 19.3 40.2 0.00 0.00 0.00 39
20260502114503 20 272 11.3 25.7 0.00 0.00 0.00 39
20260502113603 20 263 16.1 40.2 0.00 0.00 0.00 38
20260502112703 20 259 19.3 40.2 0.00 0.00 0.00 41
20260502111803 20 265 17.7 40.2 0.00 0.00 0.00 39
20260502110903 20 262 14.5 30.6 0.00 0.00 0.00 38
20260502110003 20 267 14.5 27.4 0.00 0.00 0.00 39
20260502105403 20 269 19.3 43.5 0.00 0.00 0.00 40
20260502104503 19 267 16.1 32.2 0.00 0.00 0.00 39
20260502103603 19 276 16.1 38.6 0.00 0.00 0.00 40
20260502102703 19 270 14.5 38.6 0.00 0.00 0.00 39
20260502100903 18 267 11.3 29.0 0.00 0.00 0.00 42
20260502090903 17 269 16.1 33.8 0.00 0.00 0.00 43
20260502090217 17 268 19.3 38.6 0.00 0.00 0.00 43
20260502070903 14 272 9.7 17.7 0.00 0.00 0.00 42
20260502070003 13 276 11.3 22.5 0.00 0.00 0.00 43
20260502065616 13 275 11.3 22.5 0.00 0.00 0.00 43
20260502064503 13 262 9.7 20.9 0.00 0.00 0.00 46
20260502063603 12 266 11.3 22.5 0.00 0.00 0.00 49
20260502062703 12 274 9.7 27.4 0.00 0.00 0.00 51
20260502061803 12 270 11.3 25.7 0.00 0.00 0.00 52
20260502060903 11 269 12.9 22.5 0.00 0.00 0.00 53
20260502060003 11 270 11.3 22.5 0.00 0.00 0.00 54
20260502055403 11 266 11.3 25.7 0.00 0.00 0.00 56
20260502054503 10 268 11.3 25.7 0.00 0.00 0.00 57
20260502053603 10 271 9.7 24.1 0.00 0.00 0.00 60
20260502052703 10 267 12.9 22.5 0.00 0.00 0.00 60
20260502051803 9 272 12.9 22.5 0.00 0.00 0.00 61
20260502051117 9 268 12.9 22.5 0.00 0.00 0.00 61
20260502050003 8 274 9.7 22.5 0.00 0.00 0.00 62
20260502045403 8 274 9.7 22.5 0.00 0.00 0.00 63
20260502044503 8 269 9.7 19.3 0.00 0.00 0.00 63
20260502043818 8 268 8.0 19.3 0.00 0.00 0.00 64
20260502042703 8 272 8.0 20.9 0.00 0.00 0.00 64
20260502041803 8 271 8.0 16.1 0.00 0.00 0.00 65
20260502041116 8 269 8.0 17.7 0.00 0.00 0.00 63
20260502040216 8 282 6.4 19.3 0.00 0.00 0.00 62
20260502035403 8 278 4.8 14.5 0.00 0.00 0.00 63
20260502034503 8 277 6.4 16.1 0.00 0.00 0.00 63
20260502033818 8 266 4.8 16.1 0.00 0.00 0.00 63
20260502032703 8 279 8.0 22.5 0.00 0.00 0.00 63
20260502031803 8 275 6.4 17.7 0.00 0.00 0.00 63
20260502030903 8 277 6.4 16.1 0.00 0.00 0.00 63
20260502030003 8 270 6.4 17.7 0.00 0.00 0.00 64
20260502025619 8 267 6.4 17.7 0.00 0.00 0.00 63
20260502024503 8 266 8.0 17.7 0.00 0.00 0.00 63
20260502023603 8 269 6.4 17.7 0.00 0.00 0.00 63
20260502022703 8 270 8.0 17.7 0.00 0.00 0.00 62
20260502021803 9 269 8.0 24.1 0.00 0.00 0.00 62
20260502020903 9 269 8.0 24.1 0.00 0.00 0.00 61
20260502020003 9 268 6.4 19.3 0.00 0.00 0.00 61
20260502015403 9 269 9.7 19.3 0.00 0.00 0.00 61
20260502014503 9 275 9.7 22.5 0.00 0.00 0.00 61
20260502013603 9 281 6.4 20.9 0.00 0.00 0.00 62
20260502012703 9 267 8.0 20.9 0.00 0.00 0.00 62
20260502011803 10 265 9.7 20.9 0.00 0.00 0.00 61
20260502010903 10 267 11.3 22.5 0.00 0.00 0.00 61
20260502010003 10 267 9.7 19.3 0.00 0.00 0.00 60
20260502005403 10 267 9.7 24.1 0.00 0.00 0.00 60